Starlink 36279

operational
NORAD ID: 67193 Int'l Des: 2025-304 Owner: SPXS Country: US Constellation: starlink
LEOCIRCULAR

Über Starlink 36279

Beschreibung wird geladen...

Live-Position

3D-Globus wird geladen...

Nächste Überflüge

Höhenverlauf

Altitude vs Time

uPlot chart will show altitude changes over time

Zweizeiliger Elementsatz

1 67193C 25304B 25352.76645833 .00711270 00000+0 98202-3 0 3523
2 67193 69.9984 31.2755 0009015 256.3370 227.3676 16.05026409 14
Epoch: 18. Dez. 2025 • Age: 45 hours

Aktueller Status

Höhe 264.2 km
Geschwindigkeit 7.75 km/s
Subsatellitenpunkt 40.25°N, 140.98°E
Startdatum 17. Dez. 2025
Alter 2 days
Typ internet

Technische Details

Klassifizierung Payload
Masse 575.00 kg
Trockenmasse 530.00 kg
Gesamtmasse 575.00 kg
Länge 0.30 m
Durchmesser 4.10 m
Spannweite 29.00 m
Form Box + pan
Hersteller SPXS
Bus-Typ Starlink V2MO
Phasenstatus In Orbit
Besitzer/Staat SPXS/US

Große Konstellationen

Loading constellations...